Погода во Льгове

Россия / Курская область     51°39′24″N   35°15′33″E
темп.,
°C
ветер,
м/с
пор.,
м/с
влажн.,
%
обл.,
%
осадки,
мм/ч
давл.,
гПа
погр.,
м
22 июня, вт
вт2200:00+19вюв4108397 0.0 1018149
03:00+17в49845 0.0 1017132
06:00+19в411864 0.0 1018197
09:00+24вюв511730 0.0 1018394
12:00+28вюв68605 0.0 1018742
15:00+29вюв5865100 0.0 10171122
18:00+27юв48718 0.0 1018489
21:00+23в348431 0.0 101846
23 июня, ср
ср2300:00+21в49935 0.0 1018172
03:00+20в4108659 0.0 1018176
06:00+21в51383100 0.0 1018266
09:00+26в6137413 0.0 1018484
12:00+29в61164100 0.0 1017929
15:00+30вюв5864100 0.0 10181157
18:00+27вюв3876100 0.0 1018333
21:00+23в338197 0.0 101831
24 июня, чт
чт2400:00+21в338756 0.0 101936
03:00+20в338793 0.0 101950
06:00+21в258725 0.0 1019114
09:00+26вюв46735 0.0 1019403
12:00+30вюв465716 0.0 1018906
15:00+31вюв46555 0.0 10181234
18:00+30вюв35675 0.0 1017512
21:00+25вюв22856 0.0 101819
25 июня, пт
пт2500:00+23вюв118981 0.1 101812
03:00+22вюв22905 0.1 101711
06:00+22в22905 0.0 101757
09:00+26вюв3474100 0.0 1017407
12:00+29юв2362100 0.0 10171019
15:00+30в115553 0.0 10161450
18:00+30ююв236531 0.0 1014663
21:00+22с3586100 3.1 101574
26 июня, сб
сб2600:00+18всв368942 1.2 1015104
03:00+19вюв228997 1.2 101416
06:00+21св11885 0.4 101431
09:00+25св227691 0.4 1014356
12:00+28ссв226216 0.0 10141013
15:00+30с22555 0.0 10131722
18:00+29ссв236520 0.0 10111496
21:00+24в22780 0.2 101113